Regional Weather Roundup
Issued by NWS Midland/Odessa, TX

Home | Current Version | Previous Version | Text Only | Print | Product List | Glossary On
Versions: 1 2 3 4 5 6 7 8 9 10 11 12 13 14 15 16 17 18 19 20 21 22 23 24 25 26 27 28 29 30 31 32 33 34 35 36 37 38 39 40 41 42 43 44 45 46 47 48 49 50
000
ASUS44 KMAF 270110
RWRMAF
MIDLAND AREA WEATHER ROUNDUP
NATIONAL WEATHER SERVICE MIDLAND TX
700 PM CST SUN FEB 26 2017

...IN SOUTHWEST TEXAS AND SOUTHEAST NEW MEXICO...

CITY           SKY/WX    TMP DP  RH WIND       PRES   REMARKS
ALPINE         PTCLDY    62  12  14 SW6       29.94R
ANDREWS        CLOUDY    64  20  18 CALM      29.85R
ARTESIA        CLEAR     59  23  25 W12       29.86R
BIG SPRING     CLOUDY    62  25  24 CALM      29.88R
CARLSBAD       CLEAR     61  23  23 NW13      29.84R
DRYDEN           N/A     69  35  28 E8        29.81S
FORT STOCKTON  PTCLDY    68  16  13 S5        29.84R
GUAD PASS      CLOUDY    56  21  25 W28G35      N/A
HOBBS          PTCLDY    63  16  16 SW15      29.86R
MARFA          PTCLDY    62  12  14 CALM      29.91R
MIDLAND AIRPK  CLOUDY    70  18  14 W17       29.85R
MIDLAND INTL   MOCLDY    67  15  13 SW7       29.84R
ODESSA         CLOUDY    66  16  14 VRB3      29.83F
PECOS          CLOUDY    67  17  14 NW9       29.81R
PRESIDIO       FAIR      76  15  10 CALM      29.80R
SEMINOLE       CLOUDY    60  17  19 S6        29.85R
SNYDER         MOCLDY    64  21  19 CALM      29.86R
WINK           CLOUDY    66  17  15 NW6       29.82R
$$
...OTHER STATIONS IN TEXAS...

CITY           SKY/WX    TMP DP  RH WIND       PRES   REMARKS
ABILENE        PTCLDY    65  37  35 E6        29.85R
AMARILLO       CLOUDY    49  14  24 N3        29.85R
AUSTIN         CLOUDY    69  63  81 S9        29.86R
BROWNSVILLE    NOT AVBL
CORPUS CHRISTI PTCLDY    73  67  81 SE23      29.82F
DALLAS FTW     CLOUDY    61  52  72 S5        29.87R
DEL RIO        CLOUDY    69  52  54 S5        29.82R
EL PASO        MOCLDY    63  19  18 W13G24    29.87R
HOUSTON INT    CLOUDY    68  60  75 SE14      29.94S
LUBBOCK        CLOUDY    60  16  18 W9        29.85S
SAN ANGELO     CLOUDY    66  38  35 S6        29.85R
SAN ANTONIO    CLOUDY    73  63  70 SE7       29.85R
WACO           CLOUDY    61  56  83 CALM      29.88S
WICHITA FALLS  NOT AVBL
$$
...OTHER LOCATIONS IN NEW MEXICO...

CITY           SKY/WX    TMP DP  RH WIND       PRES   REMARKS
ALAMAGORDO     PTCLDY    57  19  23 N8        29.90R
ALBUQUERQUE    MOCLDY    42  24  49 SE9       29.91R WCI  37
CANNON AFB     CLOUDY    53  19  26 W10       29.87R
CLOVIS         CLOUDY    54  19  26 W26G33    29.88R
HOLLOMAN AFB   CLOUDY    58  21  24 NE6       29.92R
ROSWELL        CLEAR     58  18  21 W14         N/A
RUIDOSO        MIX PCPN  36  28  75 SW20      29.95R WCI  25
SANTA FE       MOCLDY    36  19  50 S3        29.89R
TRUTH OR CONSE PTCLDY    51  23  33 NW7       29.90R
TUCUMCARI      CLEAR     52  14  22 W17       29.83R
$$



USA.gov is the U.S. government's official web portal to all federal, state and local government web resources and services.